Tracking 29892 objects as of 21-Nov-2024
HD Live streaming from Space Station
objects crossing your sky now

SL-16 DEB

Track SL-16 DEB now!
10-day predictions


NORAD ID: 22493
Int'l Code: 1992-093GC
Perigee: 660.8 km
Apogee: 801.7 km
Inclination: 71.0 °
Period: 99.3 minutes
Semi major axis: 7102 km
RCS: 0.0134 m2 (small)
Launch date: December 25, 1992
Source: Commonwealth of Independent States (former USSR) (CIS)
Launch site: TYURATAM MISSILE AND SPACE COMPLEX (TTMTR)

Note: This is SATELLITE DEBRIS
Your satellite tracking list
Your tracking list is empty




NASA's NSSDC Master Catalog

Two Line Element Set (TLE):
1 22493U 92093GC  24325.25936120  .00002497  00000-0  61225-3 0  9998
2 22493  71.0408  54.4516 0099182  26.4491 334.1663 14.50476945687688
Source of the keplerian elements: AFSPC